Vertical_Velocity
-3 -3 -3 -2 -2 -2 -2 -2 -2 -2 -2 -2 -2 -2 -2 -1 -1 -1 -1 -1 -0 -0 -0 -0 0 0 -0 -0 -1 -1 -1 -1 -1 -2 -2 -2 -2 -1 -1 -1 -1 -1 -0 -0 -0 -0 -0 -0 -1 -1 -1 -0 -0 -0 -0 0 0 1 1 2 0 0 1 2 1 1 2 2 1
-3 -3 -2 -2 -2 -2 -2 -2 -2 -2 -2 -2 -2 -2 -2 -1 -1 -2 -2 -2 -1 -0 -0 -0 -0 0 0 -1 -0 -0 -0 -0 -1 -1 -2 -2 -1 -1 -1 -1 -1 -1 -1 -1 -1 -1 -1 -0 -1 -1 -1 -0 -0 -0 -0 0 0 1 1 0 -0 0 1 1 1 1 1 1 0
-3 -2 -2 -2 -1 -1 -1 -2 -2 -2 -2 -2 -2 -2 -2 -2 -2 -2 -2 -2 -2 -1 0 -0 -0 0 0 0 -0 -0 0 0 -0 -1 -1 -1 -1 -1 -1 -1 -1 -1 -1 -1 -1 -1 -1 -0 -1 -1 -1 -0 -0 -0 -0 0 -0 -0 -1 -2 -1 0 1 0 1 0 0 1 -0
-1 -1 -1 -1 -1 -1 -1 -1 -2 -2 -2 -2 -2 -2 -2 -2 -2 -2 -2 -2 -2 -1 -1 -0 -0 -0 0 1 0 0 0 1 1 0 0 0 0 0 -0 -0 -0 -0 -1 -1 -1 -1 -0 -0 -0 -0 -0 0 0 -0 -0 -0 -0 -0 -1 -2 -0 0 1 0 -0 0 1 0 -0
-1 -1 -1 -1 -1 -1 -1 -1 -1 -1 -2 -2 -2 -2 -2 -2 -2 -2 -2 -1 -1 -1 -1 -1 -1 -1 -1 -0 0 -0 -0 0 1 1 1 1 1 1 0 0 0 -0 -0 -0 -0 0 0 0 0 1 1 1 0 0 0 -0 0 0 -1 -1 -0 0 0 0 -0 0 0 -0 -0
-0 -0 -1 -1 -1 -1 -2 -1 -1 -1 -1 -2 -1 -1 -2 -2 -2 -1 -1 -1 -1 -1 -1 -1 -1 -1 -1 -1 -0 -0 -0 -0 -0 0 0 1 1 1 1 0 0 0 0 0 1 1 1 1 1 1 1 1 1 1 1 0 1 0 -0 -0 -0 -0 0 0 -0 -0 -0 0 -1
0 0 -0 -1 -1 -1 -2 -2 -1 -1 -1 -1 -1 -1 -2 -2 -1 -1 -1 -1 -1 -1 -1 -1 -1 -1 -1 -1 -1 -1 -0 -0 -0 0 0 0 1 1 1 1 1 1 1 1 1 1 1 1 1 1 1 1 1 1 1 1 1 1 0 -0 -1 -0 0 -0 0 -0 -0 0 -1
0 0 0 -0 -0 -1 -1 -1 -1 -1 -1 -1 -1 -1 -1 -1 -1 -1 -1 -1 -1 -1 -1 -1 -1 -1 -1 -0 -0 -0 -0 -0 0 0 1 1 1 1 1 1 1 1 1 1 2 1 1 1 2 2 2 1 2 1 1 1 1 1 0 -1 -1 -1 0 3 3 1 0 1 -0
0 -0 -0 -0 -0 -0 -0 -1 -1 -1 -1 -1 -1 -1 -1 -1 -1 -1 -1 -1 -1 -1 -1 -0 -1 -1 -1 -0 -0 -0 -0 0 0 1 1 1 1 1 1 1 1 1 1 1 1 1 1 1 2 2 2 2 2 1 1 1 2 1 1 -0 -0 -0 0 2 2 1 0 1 1
-0 -0 -0 -0 -0 -0 0 -0 -0 -0 -0 -0 -0 -0 -0 -0 -0 -0 -0 -0 -0 -0 -0 -0 -0 -1 -1 -0 -0 -0 0 0 1 1 1 1 1 1 1 1 1 1 1 0 1 1 2 2 2 2 2 2 2 1 1 1 2 2 1 0 0 0 0 -0 -1 -1 -0 0 -0
-0 -0 0 -0 -0 -0 -0 -0 -0 -0 0 0 -0 -0 -0 -0 0 0 0 1 1 0 -0 -0 -0 -0 -1 -0 -0 -0 0 0 0 1 1 1 1 1 1 1 1 1 1 0 1 1 2 2 2 1 1 1 1 1 1 1 1 1 1 0 -0 -0 0 0 -0 0 0 -0 -1
-0 -0 -0 0 0 0 0 0 -0 -0 -0 -0 -1 -1 -1 -0 -0 0 0 0 0 -1 -1 -1 -1 -1 -1 -1 -0 -0 0 0 0 0 0 0 1 1 1 1 1 1 1 0 1 1 2 1 1 1 1 1 1 1 1 1 1 1 3 4 1 0 1 1 2 2 1 -1 -2
-1 -1 -1 -0 0 1 1 0 -1 -1 -1 -1 -1 -1 -1 -1 -1 -0 -0 -1 -1 -1 -2 -1 -1 -0 -0 -0 -0 -0 0 0 0 0 0 0 0 1 1 1 1 1 1 1 1 1 1 1 1 1 1 0 0 1 1 1 1 1 1 1 1 2 3 3 2 1 0 -0 -1
-1 -1 -1 -0 1 1 1 -0 -1 -2 -2 -1 -1 -1 -0 -1 -1 -1 -1 -1 -1 -1 -1 -1 -0 0 0 0 -0 -0 -0 -0 -0 -0 -0 -0 -0 0 1 1 1 1 1 1 1 1 1 1 1 1 1 0 0 1 1 1 1 1 1 1 3 4 4 3 1 0 0 1 1
-1 -1 -1 -0 1 1 0 -1 -2 -2 -2 -1 -1 -1 -0 -1 -2 -2 -1 -1 -1 -1 -1 -0 -0 -0 0 0 0 -0 -0 -0 -0 -1 -1 -1 -0 0 0 0 0 1 1 1 1 1 1 1 1 0 0 0 0 0 1 2 2 2 2 3 2 2 2 1 0 0 1 1 1
-2 -2 -1 0 1 0 -1 -2 -3 -2 -1 -0 -0 -1 -1 -2 -2 -1 -0 -0 -1 -1 -0 -0 -1 -1 -0 -0 -0 -0 -1 -1 -1 -1 -1 -1 -1 -0 -0 0 -0 0 0 1 1 1 1 1 1 0 0 0 0 0 1 2 2 2 2 2 2 1 1 1 1 1 0 0 0
-2 -2 -1 1 0 -1 -3 -3 -2 -1 0 0 -0 -1 -1 -1 -1 -0 -0 -0 -0 -0 -1 -1 -1 -1 -1 -1 -0 -0 -0 -1 -1 -1 -1 -1 -1 -1 -1 -0 -0 -0 0 0 0 0 0 0 0 0 0 0 0 0 0 1 1 1 2 2 2 2 2 2 2 1 1 1 0
-2 -1 -0 1 -1 -2 -3 -3 -1 1 1 0 -1 -1 -1 -1 -0 -1 -1 -0 -0 -1 -1 -2 -2 -1 -0 -0 -0 -0 -0 -1 -1 -1 -1 -1 -1 -1 -1 -0 -0 -0 0 0 0 -0 -0 -0 -0 0 0 1 1 0 0 0 1 1 1 1 1 2 2 2 2 1 1 1 0
-2 -1 -1 -1 -2 -2 -2 -1 1 1 1 -1 -2 -1 -1 -0 -1 -1 -1 -1 -1 -1 -1 -1 -1 -0 1 1 0 -0 -1 -1 -1 -1 -1 -1 -1 -1 -1 -1 -1 -1 -0 -0 -0 -0 -0 -0 -0 -0 0 1 1 1 1 2 2 2 1 1 0 0 0 1 1 1 1 1 1
-1 -1 -2 -2 -2 -1 -1 0 1 1 -0 -2 -2 -1 -1 -1 -1 -1 -1 -2 -1 -0 1 -0 -0 -0 1 1 1 -1 -1 -1 -0 -0 -0 -1 -1 -1 -1 -1 -1 -1 -0 -0 -0 0 -0 -0 -0 -0 0 1 1 1 2 2 2 1 0 -0 0 0 1 1 1 1 1 1 1
-1 -1 -2 -2 -1 -0 0 1 1 -0 -2 -2 -1 -1 -1 -1 -1 -1 -1 -1 0 1 1 1 -0 -0 0 1 0 -1 -1 -1 0 -0 -0 -1 -1 -1 -1 -1 -1 -1 -1 -0 0 0 0 0 0 0 0 0 0 1 1 1 1 1 0 0 1 2 1 1 1 1 1 1 0
-1 -1 -0 -0 0 1 1 1 1 -1 -2 -2 -1 -0 0 -0 -0 -0 -0 0 1 1 1 0 -0 -0 0 1 0 -0 -1 -0 0 0 -0 -1 -1 -1 -1 -1 -1 -1 -1 -0 0 1 1 0 0 1 1 0 0 0 1 1 1 1 1 1 2 2 1 1 0 0 -0 -0 -0
-1 0 1 1 1 1 1 1 0 -0 -1 -1 0 1 1 1 -0 0 1 1 1 1 0 -0 -0 0 1 1 1 0 -0 -1 -0 -0 -0 -1 -1 -1 -1 -1 -1 -1 -1 0 1 1 1 1 1 1 1 1 1 1 1 1 1 2 2 2 2 2 1 0 -0 -0 -0 -0 -1
1 1 1 1 1 1 1 1 0 -0 -1 -0 1 1 1 1 0 0 1 1 1 0 -0 -0 0 1 1 1 1 1 0 -0 -1 -1 -1 -1 -1 -1 -1 -1 -1 -1 -1 -1 0 1 2 2 2 2 2 2 2 2 2 2 2 2 1 1 1 0 -0 -0 -1 -1 -1 -1 -1
1 1 1 0 0 1 1 1 0 -0 -0 -0 1 1 1 1 0 0 1 1 1 0 0 0 1 1 1 1 1 1 1 1 0 -0 -0 -1 -1 -1 -1 -0 -0 -0 -0 -0 -0 -0 0 1 1 2 2 2 1 1 1 1 1 0 0 -0 -0 -0 -1 -1 -0 -0 -0 -0 -0
1 1 0 0 1 1 1 1 0 0 -0 0 1 1 0 0 0 1 1 1 1 1 1 1 1 1 1 1 1 1 1 1 1 0 -0 -0 -1 -1 -0 -0 -0 -0 -0 0 -0 -0 -0 -0 -0 -0 0 -0 -0 -0 -0 -0 -0 -0 -0 -1 -1 -1 -0 -0 -0 -0 -0 -0 -0
1 1 1 1 1 0 0 -0 0 0 -0 -0 -0 -0 -0 0 1 1 1 1 1 1 1 1 1 1 1 1 1 0 0 0 0 0 -0 -0 -0 -1 -0 -0 -0 -0 -0 -0 -1 -1 -1 -1 -1 -0 -0 -0 -0 -0 -0 -1 -1 -1 -1 -1 -1 -0 -0 -0 -0 -0 -0 -0 -0
1 1 1 1 0 -0 -0 0 0 -0 -1 -1 -0 -0 0 1 1 1 1 1 1 1 1 1 1 1 1 1 1 0 0 0 -0 -0 -0 -0 -0 -1 -1 -0 -1 -1 -0 -0 -1 -1 -1 -1 -0 0 0 -0 -0 -0 -0 -1 -1 -0 -0 -0 -0 0 0 -0 -0 -0 -0 -0 -0
0 0 0 0 -0 -1 -1 -0 -1 -1 -1 -0 0 0 1 1 1 1 1 1 1 1 1 1 1 1 1 0 0 0 0 0 -0 -0 -0 -0 -1 -1 -1 -0 -0 -0 -0 -0 -0 -0 -0 -0 -0 0 -0 -0 -0 -0 -0 -0 -0 -0 0 0 0 0 0 0 0 0 0 0 0
0 0 0 0 -0 -0 -1 -1 -1 -1 -0 0 1 1 1 1 1 1 1 1 1 1 1 1 1 1 0 0 0 0 0 0 0 -0 -0 -1 -1 -1 -0 -0 -0 0 0 0 0 0 -0 -0 -0 -0 -0 -0 -0 -0 -0 0 0 0 0 1 1 1 0 0 0 0 0 0 0
1 1 1 0 0 -0 -1 -1 -0 0 1 1 1 1 1 1 1 1 1 1 1 1 1 1 1 0 0 -0 0 0 0 -0 0 -0 -0 -0 -0 -0 -0 0 0 0 0 0 0 -0 -0 -0 -0 -0 0 0 0 0 0 0 0 0 0 1 1 0 0 0 0 -0 -0 -0 -0
1 1 1 0 -0 -0 -0 -0 1 1 1 1 1 1 1 1 1 1 1 1 1 1 1 1 1 0 0 0 0 0 0 0 0 0 -0 -0 -0 -0 -0 -0 -0 -0 -0 -0 -0 -1 -1 -0 -0 0 0 1 1 1 0 0 0 0 0 0 0 0 -0 -0 -0 -0 -0 -0 -0
1 0 0 0 -0 -0 -0 0 1 2 2 1 0 0 0 0 1 1 1 1 1 1 1 1 1 0 0 0 0 0 0 0 0 0 -0 -0 -1 -1 -1 -1 -1 -1 -0 -1 -1 -0 -0 -0 0 0 0 0 0 0 0 0 0 -0 -0 -0 -0 -1 -1 -1 -1 -1 -1 -1 -0
0 0 0 -0 -0 -0 0 1 1 2 1 1 0 0 0 1 1 1 1 1 1 1 1 0 0 0 0 0 0 -0 -0 -0 -0 -0 -0 -0 -1 -1 -1 -1 -1 -0 -0 -0 -0 -0 0 0 0 0 0 0 0 0 -0 -0 -0 -0 -1 -1 -1 -1 -1 -1 -1 -1 -1 -0 -0
0 0 0 -0 0 0 1 1 1 1 1 0 0 0 1 1 1 1 1 1 1 1 0 0 0 -0 -0 -0 -0 -0 -0 -0 -0 -0 -0 -0 -0 -0 -0 -0 -0 -0 -0 -0 -0 0 0 0 0 -0 -0 -0 -0 -0 -0 -0 -1 -1 -1 -1 -1 -1 -1 -1 -1 -1 -0 -0 0
0 0 0 0 0 1 1 1 1 1 1 0 1 1 1 1 1 1 1 1 1 1 0 0 0 -0 -0 -0 -0 -0 -0 -0 -0 0 0 -0 -0 -0 -0 -0 -0 -0 -0 -0 -0 -0 -0 -0 -0 -0 -0 -0 -0 -0 -1 -1 -1 -1 -1 -1 -1 -1 -0 -0 -0 -0 0 0 0
0 0 0 0 0 0 1 1 1 1 1 1 1 1 1 1 1 0 0 1 0 0 0 -0 0 0 -0 -0 -0 -0 -0 -0 -0 -0 0 0 -0 -0 -0 -0 -0 -0 -0 -0 -0 -0 -0 -0 -0 -1 -1 -1 -1 -1 -1 -1 -1 -1 -1 -0 -0 -0 -0 0 0 0 0 0 0
0 0 0 0 0 0 0 1 1 1 1 1 1 1 1 0 0 0 0 1 0 0 0 0 0 0 0 0 0 -0 -0 -0 -0 -0 -0 0 -0 -0 -0 -0 -0 -0 -0 -0 -1 -1 -1 -1 -1 -1 -1 -1 -1 -1 -1 -1 -1 -0 -0 0 0 0 0 0 0 0 0 0 -0
0 0 0 0 0 0 0 0 0 1 1 2 2 1 1 0 0 0 1 1 0 0 0 0 0 0 0 0 0 0 0 -0 -0 -0 -0 -0 -0 -0 -0 -1 -0 -0 -0 -0 -1 -1 -1 -1 -1 -1 -1 -1 -1 -1 -0 -0 -0 0 0 0 0 0 0 0 0 0 0 -0 -0
0 0 0 0 0 0 0 0 0 1 1 2 2 1 1 0 0 0 1 1 0 0 0 0 0 0 0 0 0 0 0 0 -0 -1 -1 -1 -0 -0 -0 -0 -0 -0 -0 -1 -1 -1 -1 -1 -1 -1 -1 -1 -1 -0 -0 0 0 0 0 0 0 0 0 0 0 -0 -0 -0 -0
0 0 0 0 1 1 1 1 1 1 1 2 2 1 1 1 0 0 1 1 1 0 0 0 0 0 0 0 0 0 0 0 -0 -0 -1 -1 -1 -0 -0 -0 -0 -0 -0 -1 -1 -1 -1 -1 -1 -1 -0 -0 -0 -0 0 0 0 0 0 0 0 -0 -0 -0 -0 -1 -1 -1 -0
Height
3132 3133 3133 3133 3134 3134 3134 3134 3134 3135 3135 3135 3135 3135 3135 3135 3135 3135 3135 3135 3135 3135 3135 3135 3134 3134 3134 3134 3134 3133 3133 3133 3133 3133 3133 3133 3133 3133 3133 3133 3133 3133 3133 3133 3133 3133 3133 3133 3132 3132 3132 3132 3132 3132 3132 3131 3131 3131 3131 3131 3131 3131 3131 3130 3130 3130 3129 3129 3129
3130 3130 3131 3131 3131 3131 3132 3132 3132 3132 3132 3132 3133 3133 3133 3133 3133 3133 3133 3133 3132 3132 3132 3132 3132 3131 3131 3131 3131 3131 3130 3130 3130 3130 3130 3130 3130 3130 3130 3130 3130 3130 3130 3130 3130 3130 3130 3130 3130 3130 3130 3130 3130 3130 3129 3129 3129 3129 3129 3129 3129 3129 3129 3128 3128 3128 3128 3127 3127
3128 3128 3129 3129 3129 3129 3129 3129 3129 3129 3130 3130 3130 3130 3130 3130 3130 3130 3130 3130 3129 3129 3129 3129 3129 3129 3129 3129 3128 3128 3128 3128 3128 3128 3128 3128 3128 3128 3128 3128 3128 3128 3128 3128 3128 3128 3128 3128 3128 3127 3128 3128 3128 3128 3127 3127 3127 3127 3127 3126 3126 3126 3126 3126 3126 3125 3125 3125 3124
3126 3126 3126 3127 3127 3127 3127 3127 3127 3127 3127 3127 3127 3127 3127 3127 3127 3127 3127 3127 3127 3127 3127 3127 3127 3126 3126 3126 3126 3126 3126 3126 3126 3126 3126 3126 3126 3125 3125 3125 3125 3125 3125 3125 3125 3125 3125 3125 3125 3125 3125 3125 3125 3125 3125 3125 3125 3124 3124 3124 3124 3124 3124 3124 3124 3124 3123 3123 3123
3124 3124 3124 3124 3124 3124 3124 3124 3124 3124 3124 3124 3124 3124 3124 3124 3124 3124 3124 3124 3124 3124 3124 3124 3124 3124 3124 3124 3124 3124 3124 3124 3124 3124 3124 3124 3124 3124 3124 3123 3123 3123 3123 3123 3123 3123 3123 3123 3123 3123 3123 3123 3123 3123 3123 3123 3123 3122 3122 3122 3122 3122 3122 3122 3121 3121 3121 3120 3120
3121 3121 3121 3122 3122 3122 3122 3122 3122 3122 3122 3122 3122 3121 3121 3122 3122 3122 3122 3122 3122 3122 3122 3122 3121 3121 3121 3121 3121 3121 3121 3121 3121 3121 3121 3122 3122 3122 3121 3121 3121 3121 3121 3121 3121 3121 3121 3121 3121 3121 3121 3121 3121 3121 3120 3120 3120 3120 3120 3120 3119 3119 3119 3119 3119 3119 3119 3119 3118
3118 3118 3118 3119 3119 3119 3119 3119 3119 3119 3119 3119 3119 3119 3119 3119 3119 3119 3119 3119 3119 3119 3119 3119 3119 3119 3119 3119 3119 3119 3119 3119 3119 3119 3119 3119 3119 3119 3119 3119 3119 3119 3119 3119 3119 3119 3119 3119 3119 3119 3119 3119 3119 3119 3118 3118 3118 3118 3118 3118 3117 3117 3117 3117 3117 3117 3116 3116 3116
3115 3115 3115 3115 3116 3116 3116 3116 3116 3116 3116 3116 3116 3116 3116 3116 3116 3116 3116 3116 3116 3116 3116 3116 3116 3116 3116 3116 3116 3116 3116 3117 3117 3117 3117 3117 3117 3117 3117 3117 3117 3117 3116 3116 3116 3116 3116 3116 3116 3116 3116 3116 3116 3116 3116 3116 3116 3116 3115 3115 3115 3115 3115 3115 3114 3114 3114 3114 3114
3112 3112 3112 3112 3113 3113 3113 3113 3113 3113 3113 3113 3113 3113 3113 3113 3113 3113 3113 3113 3113 3113 3113 3113 3113 3113 3113 3114 3114 3114 3114 3114 3114 3114 3114 3114 3114 3114 3114 3114 3114 3114 3114 3114 3114 3114 3114 3114 3114 3114 3114 3114 3114 3114 3114 3114 3114 3114 3113 3113 3113 3113 3113 3113 3112 3112 3111 3111 3111
3109 3109 3109 3109 3109 3110 3110 3110 3110 3110 3110 3110 3110 3110 3110 3110 3110 3110 3110 3110 3110 3110 3110 3110 3110 3110 3110 3110 3111 3111 3111 3111 3111 3111 3111 3111 3111 3111 3111 3111 3111 3111 3111 3111 3111 3111 3111 3111 3111 3111 3111 3111 3111 3111 3111 3111 3111 3111 3111 3111 3111 3110 3110 3110 3110 3109 3109 3109 3109
3106 3106 3106 3107 3107 3107 3107 3107 3107 3107 3107 3107 3107 3107 3107 3107 3107 3107 3107 3107 3108 3108 3108 3108 3108 3108 3108 3108 3108 3108 3108 3108 3108 3108 3108 3108 3109 3109 3109 3108 3108 3108 3108 3108 3108 3108 3108 3108 3109 3109 3109 3109 3109 3109 3109 3109 3109 3109 3109 3109 3108 3108 3108 3108 3108 3108 3108 3107 3107
3103 3103 3104 3104 3104 3104 3104 3104 3104 3104 3104 3104 3104 3104 3104 3104 3104 3104 3105 3105 3105 3105 3105 3105 3105 3105 3105 3105 3105 3105 3105 3105 3105 3105 3105 3105 3105 3106 3105 3105 3105 3105 3105 3105 3105 3105 3105 3105 3106 3106 3106 3106 3106 3106 3106 3106 3106 3107 3106 3106 3106 3106 3106 3106 3106 3106 3106 3105 3105
3100 3100 3100 3101 3101 3101 3102 3102 3102 3102 3102 3102 3102 3102 3102 3102 3102 3102 3102 3102 3102 3102 3102 3102 3102 3102 3102 3102 3102 3102 3102 3102 3102 3102 3103 3103 3103 3103 3103 3103 3103 3102 3102 3102 3102 3103 3103 3103 3103 3103 3103 3103 3103 3104 3104 3104 3104 3104 3104 3104 3104 3104 3104 3104 3104 3104 3104 3103 3103
3097 3098 3098 3098 3098 3099 3099 3099 3099 3099 3099 3099 3099 3099 3099 3099 3099 3099 3099 3099 3099 3099 3099 3099 3099 3099 3099 3099 3099 3099 3099 3099 3100 3100 3100 3100 3100 3100 3100 3100 3099 3099 3099 3099 3099 3100 3100 3100 3100 3100 3100 3100 3101 3101 3101 3101 3102 3102 3102 3101 3102 3102 3102 3102 3102 3101 3101 3101 3101
3095 3095 3095 3095 3096 3096 3096 3096 3096 3096 3096 3096 3097 3097 3097 3097 3097 3097 3097 3097 3097 3097 3097 3097 3096 3096 3097 3097 3097 3097 3097 3097 3097 3097 3097 3097 3097 3097 3097 3097 3097 3097 3097 3097 3097 3097 3097 3097 3098 3098 3098 3098 3098 3099 3099 3099 3099 3099 3099 3099 3099 3100 3100 3100 3099 3099 3099 3099 3099
3092 3092 3093 3093 3093 3093 3093 3093 3093 3094 3094 3094 3094 3094 3094 3094 3094 3094 3094 3094 3094 3094 3094 3094 3094 3094 3094 3094 3094 3094 3094 3094 3094 3094 3094 3094 3094 3094 3094 3094 3094 3094 3094 3094 3094 3094 3095 3095 3095 3095 3095 3095 3096 3096 3097 3097 3097 3097 3097 3097 3098 3097 3097 3097 3097 3097 3097 3097 3097
3089 3089 3090 3090 3090 3090 3090 3090 3090 3091 3091 3091 3091 3091 3091 3091 3091 3091 3091 3091 3091 3091 3091 3091 3091 3091 3092 3092 3092 3092 3092 3092 3092 3092 3092 3092 3092 3092 3092 3092 3092 3092 3092 3092 3092 3092 3093 3093 3093 3093 3093 3093 3093 3094 3094 3094 3094 3094 3094 3095 3095 3095 3095 3095 3095 3095 3095 3095 3094
3087 3087 3087 3087 3087 3087 3087 3087 3088 3088 3088 3089 3089 3089 3088 3088 3089 3089 3089 3089 3089 3089 3089 3089 3089 3089 3089 3089 3090 3090 3090 3089 3089 3089 3089 3089 3089 3089 3089 3089 3089 3089 3090 3090 3090 3090 3090 3090 3090 3090 3090 3091 3091 3092 3092 3092 3092 3092 3092 3092 3093 3093 3093 3093 3093 3093 3093 3093 3092
3084 3084 3084 3084 3084 3084 3084 3085 3085 3085 3085 3085 3085 3085 3085 3086 3086 3086 3086 3086 3086 3086 3086 3086 3086 3087 3087 3087 3088 3087 3087 3087 3087 3087 3087 3087 3087 3087 3087 3087 3087 3087 3088 3088 3088 3088 3088 3088 3088 3088 3089 3089 3089 3089 3089 3089 3090 3090 3090 3090 3090 3090 3090 3090 3091 3091 3090 3090 3090
3081 3081 3081 3081 3081 3081 3082 3082 3082 3083 3083 3082 3083 3083 3083 3083 3083 3083 3083 3083 3083 3084 3084 3084 3084 3084 3085 3085 3085 3085 3085 3085 3085 3085 3085 3085 3085 3085 3085 3085 3085 3085 3085 3086 3086 3086 3086 3086 3086 3086 3087 3087 3087 3087 3087 3087 3088 3088 3088 3088 3088 3088 3088 3089 3089 3089 3089 3088 3088
3078 3078 3078 3078 3079 3079 3079 3079 3079 3079 3079 3079 3080 3080 3080 3080 3080 3080 3080 3081 3081 3081 3082 3082 3082 3082 3083 3083 3083 3083 3083 3083 3083 3083 3083 3083 3083 3083 3083 3083 3083 3083 3084 3084 3084 3084 3084 3084 3084 3084 3084 3085 3085 3085 3085 3085 3085 3085 3086 3086 3086 3087 3087 3086 3086 3086 3086 3086 3086
3075 3075 3075 3075 3076 3076 3076 3076 3076 3076 3077 3077 3077 3077 3078 3078 3078 3078 3078 3079 3079 3079 3079 3080 3080 3080 3080 3081 3081 3081 3081 3081 3081 3081 3081 3081 3081 3081 3081 3081 3081 3081 3081 3082 3082 3082 3082 3082 3082 3083 3083 3083 3083 3083 3083 3083 3084 3084 3084 3084 3084 3084 3084 3084 3084 3084 3084 3084 3084
3073 3073 3073 3073 3073 3073 3073 3074 3074 3074 3074 3074 3074 3075 3075 3075 3075 3076 3076 3077 3077 3077 3077 3078 3078 3078 3079 3079 3079 3079 3079 3079 3079 3079 3079 3079 3079 3079 3079 3079 3079 3079 3079 3079 3080 3080 3080 3080 3080 3080 3081 3081 3081 3081 3081 3081 3082 3082 3082 3082 3082 3082 3082 3082 3082 3082 3082 3082 3082
3070 3070 3070 3070 3070 3070 3070 3071 3071 3071 3071 3072 3072 3073 3073 3073 3073 3074 3074 3075 3075 3075 3075 3076 3076 3076 3077 3077 3077 3077 3077 3077 3077 3077 3077 3077 3077 3077 3077 3077 3077 3077 3077 3077 3077 3078 3078 3078 3079 3079 3079 3079 3079 3079 3079 3080 3080 3080 3080 3080 3080 3080 3080 3080 3079 3079 3079 3079 3079
3068 3068 3068 3068 3068 3068 3068 3069 3069 3069 3069 3069 3070 3070 3071 3071 3072 3072 3073 3073 3073 3073 3074 3074 3074 3074 3075 3075 3075 3076 3076 3076 3075 3075 3075 3075 3075 3075 3075 3075 3075 3075 3075 3075 3075 3075 3076 3076 3076 3077 3077 3077 3077 3077 3077 3077 3078 3078 3078 3078 3078 3078 3078 3078 3078 3078 3078 3078 3078
3066 3066 3066 3066 3066 3066 3066 3067 3067 3067 3067 3068 3068 3069 3069 3069 3070 3070 3071 3071 3071 3072 3072 3072 3073 3073 3073 3074 3074 3074 3074 3074 3074 3074 3073 3073 3073 3073 3073 3073 3073 3073 3073 3073 3073 3073 3074 3074 3074 3074 3074 3074 3075 3075 3075 3075 3075 3075 3076 3076 3076 3076 3076 3076 3076 3076 3076 3076 3076
3064 3064 3064 3064 3064 3064 3064 3065 3065 3065 3065 3066 3066 3067 3067 3068 3068 3069 3069 3069 3069 3070 3070 3070 3071 3071 3071 3071 3072 3072 3072 3072 3072 3072 3071 3071 3071 3071 3071 3071 3071 3071 3071 3071 3071 3071 3071 3072 3072 3072 3073 3073 3073 3073 3073 3073 3074 3074 3074 3074 3074 3074 3074 3074 3074 3074 3074 3074 3074
3062 3062 3062 3062 3062 3062 3063 3063 3063 3064 3064 3064 3065 3065 3066 3066 3066 3067 3067 3068 3068 3068 3068 3069 3069 3069 3069 3069 3069 3069 3069 3069 3069 3069 3069 3069 3069 3069 3069 3069 3069 3069 3069 3069 3069 3069 3069 3070 3070 3070 3071 3071 3071 3071 3071 3071 3072 3072 3072 3072 3072 3072 3072 3072 3072 3073 3073 3073 3073
3060 3060 3060 3060 3060 3061 3061 3061 3062 3062 3062 3063 3063 3064 3064 3064 3064 3065 3065 3065 3066 3066 3066 3066 3067 3067 3067 3067 3067 3067 3067 3067 3067 3068 3068 3068 3067 3067 3067 3067 3067 3067 3067 3067 3068 3068 3068 3068 3068 3069 3069 3069 3069 3069 3069 3070 3070 3070 3070 3070 3070 3071 3071 3071 3071 3071 3071 3071 3071
3058 3058 3058 3059 3059 3059 3059 3059 3060 3060 3061 3061 3061 3062 3062 3062 3063 3063 3063 3064 3064 3064 3064 3064 3064 3065 3065 3065 3065 3065 3065 3065 3065 3065 3065 3065 3065 3065 3065 3065 3065 3065 3065 3066 3066 3066 3066 3066 3067 3067 3067 3067 3068 3068 3068 3068 3068 3069 3069 3069 3069 3069 3069 3069 3069 3069 3069 3070 3070
3056 3056 3056 3057 3057 3057 3057 3058 3058 3059 3059 3059 3059 3060 3060 3060 3060 3061 3061 3061 3061 3062 3062 3062 3062 3063 3063 3063 3063 3063 3063 3063 3063 3064 3064 3064 3064 3063 3064 3064 3064 3064 3064 3064 3064 3064 3064 3065 3065 3065 3065 3066 3066 3066 3066 3067 3067 3067 3067 3067 3067 3068 3068 3068 3068 3068 3068 3068 3068
3054 3054 3054 3054 3055 3055 3055 3056 3056 3056 3057 3057 3057 3057 3058 3058 3058 3059 3059 3059 3059 3059 3060 3060 3060 3060 3060 3061 3061 3061 3061 3061 3061 3061 3061 3061 3061 3061 3062 3062 3062 3062 3062 3062 3063 3063 3063 3063 3063 3064 3064 3064 3064 3065 3065 3065 3065 3065 3066 3066 3066 3066 3066 3066 3067 3067 3067 3067 3067
3052 3052 3052 3053 3053 3053 3053 3054 3054 3054 3054 3055 3055 3055 3055 3056 3056 3056 3057 3057 3057 3058 3058 3058 3058 3058 3058 3059 3059 3059 3059 3059 3059 3059 3059 3059 3059 3059 3060 3060 3060 3060 3060 3061 3061 3061 3061 3062 3062 3062 3062 3063 3063 3063 3063 3064 3064 3064 3064 3064 3064 3065 3065 3065 3065 3065 3065 3065 3065
3051 3051 3051 3051 3051 3051 3052 3052 3052 3052 3053 3053 3053 3053 3053 3054 3054 3054 3054 3055 3055 3055 3056 3056 3056 3056 3056 3057 3057 3057 3057 3057 3058 3058 3058 3058 3058 3058 3058 3058 3059 3059 3059 3059 3059 3060 3060 3060 3060 3061 3061 3061 3061 3062 3062 3062 3062 3063 3063 3063 3063 3064 3064 3064 3064 3064 3064 3064 3064
3049 3049 3049 3049 3049 3050 3050 3050 3050 3050 3050 3051 3051 3051 3051 3052 3052 3052 3053 3053 3053 3054 3054 3054 3054 3054 3054 3054 3055 3055 3055 3055 3056 3056 3056 3056 3056 3056 3057 3057 3057 3057 3058 3058 3058 3058 3059 3059 3059 3059 3059 3060 3060 3060 3060 3061 3061 3061 3061 3062 3062 3062 3062 3062 3062 3062 3062 3062 3062
3048 3048 3048 3048 3048 3048 3048 3049 3049 3049 3049 3049 3049 3049 3049 3050 3050 3050 3051 3051 3051 3052 3052 3052 3052 3052 3053 3053 3053 3053 3054 3054 3054 3054 3054 3055 3055 3055 3055 3055 3055 3056 3056 3056 3056 3057 3057 3057 3058 3058 3058 3058 3059 3059 3059 3059 3059 3060 3060 3060 3060 3061 3061 3061 3061 3061 3061 3061 3061
3047 3047 3047 3046 3046 3047 3047 3047 3047 3047 3047 3047 3048 3048 3048 3048 3048 3049 3049 3049 3049 3050 3050 3050 3050 3051 3051 3051 3051 3051 3052 3052 3052 3053 3053 3053 3053 3054 3054 3054 3054 3054 3054 3055 3055 3055 3055 3056 3056 3056 3057 3057 3057 3057 3058 3058 3058 3059 3059 3059 3059 3059 3059 3059 3059 3059 3059 3059 3059
3045 3045 3045 3045 3045 3045 3045 3045 3045 3045 3046 3046 3046 3046 3046 3046 3047 3047 3047 3047 3048 3048 3048 3048 3049 3049 3049 3049 3049 3050 3050 3050 3051 3051 3051 3052 3052 3052 3052 3052 3053 3053 3053 3053 3054 3054 3054 3054 3055 3055 3055 3055 3056 3056 3056 3057 3057 3057 3057 3057 3058 3058 3058 3058 3058 3058 3058 3058 3058
3044 3044 3044 3044 3043 3043 3044 3044 3044 3044 3044 3044 3044 3044 3044 3045 3045 3045 3045 3046 3046 3046 3046 3046 3047 3047 3047 3048 3048 3048 3049 3049 3049 3049 3050 3050 3050 3050 3051 3051 3051 3051 3052 3052 3052 3052 3053 3053 3053 3054 3054 3054 3054 3055 3055 3055 3055 3056 3056 3056 3056 3056 3056 3056 3056 3057 3057 3057 3057
3042 3042 3042 3042 3042 3042 3042 3042 3042 3042 3042 3043 3043 3043 3043 3043 3043 3043 3044 3044 3044 3044 3044 3045 3045 3045 3046 3046 3046 3047 3047 3047 3048 3048 3048 3049 3049 3049 3049 3049 3050 3050 3050 3050 3051 3051 3051 3052 3052 3052 3053 3053 3053 3053 3054 3054 3054 3054 3054 3054 3054 3054 3055 3055 3055 3055 3055 3055 3056
3040 3040 3040 3040 3040 3040 3040 3040 3040 3040 3041 3041 3041 3041 3041 3041 3041 3041 3042 3042 3042 3043 3043 3043 3043 3044 3044 3044 3045 3045 3045 3046 3046 3046 3047 3047 3047 3048 3048 3048 3049 3049 3049 3049 3049 3050 3050 3050 3051 3051 3051 3052 3052 3052 3052 3052 3053 3053 3053 3053 3053 3053 3054 3054 3054 3054 3054 3054 3055